Skip Page Navigation
NASA JPL Caltech
NASA Logo - Jet Propulsion Laboratory + View the NASA Portal
+ Center for Near-Earth Object Studies
JPL Home Earth Solar System Stars & Galaxies Technology
JPL Solar System Dynamics
BODIES ORBITS EPHEMERIDES TOOLS PHYSICAL DATA DISCOVERY FAQ SITE MAP
JPL Small-Body Database Browser
Search: [ help ]  
79018 (2126 T-1)
Classification: Main-belt Asteroid          SPK-ID: 2079018
Ephemeris | Orbit Diagram | Orbital Elements | Mission Design | Physical Parameters | Discovery Circumstances | Close-Approach Data ]

[ show orbit diagram ]
Orbital Elements at Epoch 2459000.5 (2020-May-31.0) TDB
Reference: JPL 20 (heliocentric ecliptic J2000)
 Element Value Uncertainty (1-sigma)   Units 
e .1236804697065111 4.0293e-08  
a 3.180843048572828 2.462e-08 au
q 2.78743488626265 1.2972e-07 au
i 2.480335438594048 4.3778e-06 deg
node 138.5051506915732 0.00011679 deg
peri 116.9022972502816 0.00011926 deg
M 194.5809410238887 2.8281e-05 deg
tp 2459952.626894118024
(2023-Jan-08.12689412)
0.00016974 TDB
period 2072.105137123218
5.67
2.4057e-05
6.586e-08
d
yr
n .1737363580401145 2.0171e-09 deg/d
Q 3.574251210883006 2.7665e-08 au
  Orbit Determination Parameters
   # obs. used (total)      861  
   data-arc span      18106 days (49.57 yr)  
   first obs. used      1971-03-25  
   last obs. used      2020-10-19  
   planetary ephem.      DE431  
   SB-pert. ephem.      SB431-N16  
   condition code      0  
   norm. resid. RMS      .58453  
   source      ORB  
   producer      Otto Matic  
   solution date      2020-Nov-12 21:24:42  

Additional Information
 Earth MOID = 1.77376 au 
 Jupiter MOID = 1.47542 au 
 T_jup = 3.186 
[ show covariance matrix ]

Ephemeris | Orbit Diagram | Orbital Elements | Mission Design | Physical Parameters | Discovery Circumstances | Close-Approach Data ]

Physical Parameter Table
Parameter Symbol Value Units Sigma Reference Notes
absolute magnitude H 14.4   n/a MPO351399  
diameter diameter 6.546 km 0.214 urn:nasa:pds:neowise_diameters_albedos::2.0[mainbelt] (http://adsabs.harvard.edu/abs/2011ApJ...741...68M)  
geometric albedo albedo 0.086   0.014 urn:nasa:pds:neowise_diameters_albedos::2.0[mainbelt] (http://adsabs.harvard.edu/abs/2011ApJ...741...68M)  

79018 (2126 T-1)          Discovered 1971-Mar-25 by van Houten, C. J., van Houten-Groeneveld, I., Gehrels, T. at Palomar
Reference: 20040415/Numbers.arcLast Updated: 2004-04-19

[ hide close-approach data ]
Close-Approach Data   ...sorted by Date/Time (TDB)
Date/Time (TDB) Time Uncertainty
(days_HH:MM)
Body Nominal Distance (au) Minimum Distance (au) Maximum Distance (au) V-relative (km/s) V-infinity (km/s) JD (TDB) Time Uncertainty (minutes) Semi-major axis (km) Semi-minor axis (km) range-LOV angle (deg) N-sigma BP Orbit Ref. Reference Modified
1907-May-07 04:59 00:04 Jupiter 1.76906281232345 1.76906066087646 1.76906496376874 2.2543108762799 2.03084290550993 2417702.707901630 3.67881925873174 100.505359669294 19.8247610926097 -74.403421259622 1119547.01729895 T 20 CATAB v2.0f-lin.ifort 2020-Nov-12 21:24:45 2020-Nov-12 21:24
1918-Mar-09 15:33 00:03 Jupiter 1.54276600629992 1.54276505235316 1.5427669602451 1.59009950766229 1.19597635090637 2421662.148174348 3.10104018413208 91.3504370996881 72.0431525295974 -23.7312309020968 1418870.25992997 T 20 CATAB v2.0f-lin.ifort 2020-Nov-12 21:24:45 2020-Nov-12 21:24
1929-Jan-13 11:59 00:03 Jupiter 1.52025046149908 1.52024971685787 1.52025120614064 1.69312542686091 1.32376509071695 2425624.999359015 2.63801860228943 172.765053341563 51.2162169441244 55.5601081048385 1707503.19571848 T 20 CATAB v2.0f-lin.ifort 2020-Nov-12 21:24:45 2020-Nov-12 21:24
1939-Nov-06 07:34 00:02 Jupiter 1.72351050805187 1.72350911374167 1.72351190236374 2.63267123876926 2.43886326988043 2429573.815090765 2.29441528234437 129.80967953042 14.4503232271355 -78.0784133614024 1909000.91458859 T 20 CATAB v2.0f-lin.ifort 2020-Nov-12 21:24:45 2020-Nov-12 21:24
2026-Nov-22 13:44 < 00:01 Jupiter 1.99111358814241 1.99111311753894 1.99111405874576 3.01890361641475 2.87453930870891 2461367.071982071 0.517260454092704 50.9788756605338 16.0478452688896 89.9977120440177 3152498.88009145 T 20 CATAB v2.0f-lin.ifort 2020-Nov-12 21:24:45 2020-Nov-12 21:24
2037-Sep-21 19:59 < 00:01 Jupiter 1.69683572289189 1.6968352916263 1.6968361541573 1.99329090692533 1.72477629969072 2465323.332292696 0.943364145605468 59.7231457009372 12.862943966466 88.8879013334759 2574653.9086804 T 20 CATAB v2.0f-lin.ifort 2020-Nov-12 21:24:45 2020-Nov-12 21:24
2048-Jul-26 00:08 00:01 Jupiter 1.52040601747282 1.52040560261815 1.52040643232697 1.53515849061245 1.11467748879923 2469283.505389789 1.43084946859758 96.3082963250463 83.8633299371705 8.16973057087183 2049795.21087693 T 20 CATAB v2.0f-lin.ifort 2020-Nov-12 21:24:45 2020-Nov-12 21:24
2059-May-29 14:32 00:02 Jupiter 1.56914369679264 1.5691430029066 1.56914439067884 1.89299799192914 1.5823536244674 2473243.105234404 1.98855567836509 114.583623420066 25.2426967824193 74.7709480506084 1860425.66592798 T 20 CATAB v2.0f-lin.ifort 2020-Nov-12 21:24:45 2020-Nov-12 21:24
2070-Mar-15 22:26 00:02 Jupiter 1.80919351222532 1.80919231567012 1.80919470878268 3.04594315483994 2.88815096674334 2477186.434562922 2.48222404492472 133.108582741637 18.3650605582526 -74.6364621750534 2265758.24758323 T 20 CATAB v2.0f-lin.ifort 2020-Nov-12 21:24:45 2020-Nov-12 21:24
2157-Mar-25 18:21 00:05 Jupiter 1.89462558848141 1.89462308428291 1.89462809268324 2.62463918704124 2.448387028025 2508972.264831769 5.0502259282386 194.409673382927 21.3077628869347 -69.0398422216441 1759593.99555893 T 20 CATAB v2.0f-lin.ifort 2020-Nov-12 21:24:45 2020-Nov-12 21:24
2168-Jan-23 18:51 00:05 Jupiter 1.62764587985862 1.62764397591089 1.6276477838034 1.7674239568888 1.4432577212858 2512928.285401078 5.4824080703971 132.237663667423 43.3165740667404 64.8793254094522 1126047.16186086 T 20 CATAB v2.0f-lin.ifort 2020-Nov-12 21:24:45 2020-Nov-12 21:24
2178-Nov-29 17:33 00:06 Jupiter 1.52330742841418 1.52330698508033 1.52330787174732 1.5709355862061 1.16436898463787 2516891.231368106 5.98542305709142 181.415366863084 79.1810432391573 47.5759366648105 1794179.52436405 T 20 CATAB v2.0f-lin.ifort 2020-Nov-12 21:24:45 2020-Nov-12 21:24
2189-Sep-26 04:48 00:07 Jupiter 1.63741959492403 1.63741718950464 1.63742200036119 2.19933285423407 1.94999561186567 2520844.699911103 6.78834577189543 344.055521603356 6.44319327823469 87.0715895934818 1919431.36743863 T 20 CATAB v2.0f-lin.ifort 2020-Nov-12 21:24:45 2020-Nov-12 21:24
2200-Jul-11 04:21 00:07 Jupiter 1.90849187936226 1.90848827760041 1.90849548114592 3.54952419499452 3.42220492804251 2524784.681134155 7.24240129411305 379.218174085696 21.482457522362 -68.3655531719749 2454077.40508993 T 20 CATAB v2.0f-lin.ifort 2020-Nov-12 21:24:45 2020-Nov-12 21:24

Alternate Designations
 2126 T-1 = 2001 QD236 
Ephemeris | Orbit Diagram | Orbital Elements | Mission Design | Physical Parameters | Discovery Circumstances | Close-Approach Data ]
ABOUT SSD CREDITS/AWARDS PRIVACY/COPYRIGHT GLOSSARY LINKS
FirstGov 2020-Dec-03 17:32 UT
(server date/time)  
NASA Home Page
Site Manager:   Ryan S. Park
Webmaster  Alan B. Chamberlin